MEASAT 3D

Last updated on Sun Apr 12 2026 00:02:56 GMT+0000 (Coordinated Universal Time)

1 52904U 22067B 26101.46850309 -.00000240 00000+0 00000+0 0 9997 2 52904 0.0424 14.2466 0002576 345.7870 99.8205 1.00271264 13986
UTC large
Height (km)
Speed (km/s)
/
Latitude / Longitude
Inclination (degrees)
Orbital Period (minutes)
Azimuth
Elevation
Range (km)
Doppler Factor

Next 0 passes for location: London (51.5072 / 0.1276)

Sorry there are no passes over London.